| time (UTC) | temp C | wind direction | speed KPH | gust KPH | rain 1hr cm | rain 24hr cm | rain mn cm | humidity % | barometer mb |
| 20260510123009 | 10 | 257 | 0.0 | 0.0 | 0.00 | 0.00 | 0.00 | 72 | 1014.1 |
| 20260510122009 | 10 | 256 | 0.0 | 0.0 | 0.00 | 0.00 | 0.00 | 72 | 1014.0 |
| 20260510120944 | 10 | 257 | 0.0 | 0.0 | 0.00 | 0.00 | 0.00 | 71 | 1014.1 |
| 20260510115946 | 11 | 257 | 0.0 | 0.0 | 0.00 | 0.00 | 0.00 | 69 | 1014.1 |
| 20260510114945 | 11 | 257 | 0.0 | 0.0 | 0.00 | 0.00 | 0.00 | 67 | 1014.1 |
| 20260510113943 | 12 | 256 | 0.0 | 0.0 | 0.00 | 0.00 | 0.00 | 65 | 1014.1 |
| 20260510112945 | 12 | 257 | 0.0 | 0.0 | 0.00 | 0.00 | 0.00 | 63 | 1014.0 |
| 20260510111927 | 13 | 257 | 0.0 | 0.0 | 0.00 | 0.00 | 0.00 | 61 | 1014.0 |
| 20260510110935 | 14 | 257 | 0.0 | 0.0 | 0.00 | 0.00 | 0.00 | 58 | 1013.9 |
| 20260510105938 | 15 | 257 | 0.0 | 0.0 | 0.00 | 0.00 | 0.00 | 57 | 1013.9 |
| 20260510104942 | 14 | 256 | 1.6 | 8.0 | 0.00 | 0.00 | 0.00 | 56 | 1013.8 |
| 20260510103944 | 14 | 256 | 0.0 | 11.3 | 0.00 | 0.00 | 0.00 | 57 | 1013.8 |
| 20260510102932 | 13 | 256 | 0.0 | 0.0 | 0.00 | 0.00 | 0.00 | 59 | 1013.8 |
| 20260510101934 | 13 | 257 | 0.0 | 0.0 | 0.00 | 0.00 | 0.00 | 61 | 1014.0 |
| 20260510100937 | 12 | 257 | 0.0 | 0.0 | 0.00 | 0.00 | 0.00 | 63 | 1014.1 |
| 20260510095942 | 12 | 256 | 0.0 | 0.0 | 0.00 | 0.00 | 0.00 | 63 | 1014.1 |
| 20260510094933 | 12 | 256 | 0.0 | 0.0 | 0.00 | 0.00 | 0.00 | 62 | 1014.0 |
| 20260510093936 | 12 | 257 | 0.0 | 0.0 | 0.00 | 0.00 | 0.00 | 63 | 1014.1 |
| 20260510092937 | 12 | 257 | 0.0 | 0.0 | 0.00 | 0.00 | 0.00 | 62 | 1014.3 |
| 20260510090942 | 12 | 257 | 0.0 | 6.4 | 0.00 | 0.00 | 0.00 | 63 | 1014.5 |
| 20260510085941 | 12 | 257 | 0.0 | 6.4 | 0.00 | 0.00 | 0.00 | 64 | 1014.6 |
| 20260510084942 | 12 | 256 | 0.0 | 0.0 | 0.00 | 0.00 | 0.00 | 64 | 1014.7 |
| 20260510083946 | 12 | 257 | 0.0 | 0.0 | 0.00 | 0.00 | 0.00 | 63 | 1014.6 |
| 20260510082949 | 12 | 256 | 0.0 | 0.0 | 0.00 | 0.00 | 0.00 | 63 | 1014.8 |
| 20260510081936 | 12 | 257 | 0.0 | 0.0 | 0.00 | 0.00 | 0.00 | 62 | 1014.9 |
| 20260510080938 | 12 | 256 | 0.0 | 0.0 | 0.00 | 0.00 | 0.00 | 61 | 1014.9 |
| 20260510075940 | 12 | 256 | 0.0 | 0.0 | 0.00 | 0.00 | 0.00 | 60 | 1014.9 |
| 20260510074947 | 12 | 256 | 0.0 | 0.0 | 0.00 | 0.00 | 0.00 | 60 | 1014.9 |
| 20260510073932 | 13 | 256 | 0.0 | 0.0 | 0.00 | 0.00 | 0.00 | 59 | 1015.0 |
| 20260510072934 | 13 | 257 | 0.0 | 0.0 | 0.00 | 0.00 | 0.00 | 58 | 1015.0 |
| 20260510071941 | 13 | 257 | 0.0 | 0.0 | 0.00 | 0.00 | 0.00 | 57 | 1015.0 |
| 20260510071001 | 14 | 257 | 0.0 | 4.8 | 0.00 | 0.00 | 0.00 | 54 | 1014.9 |
| 20260510065929 | 14 | 257 | 1.6 | 6.4 | 0.00 | 0.00 | 0.00 | 53 | 1014.8 |
| 20260510064932 | 13 | 257 | 0.0 | 0.0 | 0.00 | 0.00 | 0.00 | 54 | 1014.9 |
| 20260510063938 | 13 | 256 | 0.0 | 0.0 | 0.00 | 0.00 | 0.00 | 55 | 1014.9 |
| 20260510061945 | 13 | 257 | 0.0 | 9.7 | 0.00 | 0.00 | 0.00 | 57 | 1015.1 |
| 20260510060944 | 13 | 256 | 0.0 | 3.2 | 0.00 | 0.00 | 0.00 | 59 | 1015.1 |
| 20260510055941 | 13 | 257 | 0.0 | 0.0 | 0.00 | 0.00 | 0.00 | 60 | 1015.2 |
| 20260510054942 | 13 | 257 | 0.0 | 0.0 | 0.00 | 0.00 | 0.00 | 61 | 1015.4 |
| 20260510053959 | 13 | 256 | 0.0 | 0.0 | 0.00 | 0.00 | 0.00 | 62 | 1015.4 |
| 20260510052946 | 13 | 257 | 0.0 | 0.0 | 0.00 | 0.00 | 0.00 | 62 | 1015.4 |
| 20260510051932 | 13 | 257 | 0.0 | 0.0 | 0.00 | 0.00 | 0.00 | 62 | 1015.6 |
| 20260510050935 | 14 | 257 | 0.0 | 0.0 | 0.00 | 0.00 | 0.00 | 62 | 1015.6 |
| 20260510045940 | 14 | 257 | 0.0 | 0.0 | 0.00 | 0.00 | 0.00 | 62 | 1015.8 |
| 20260510045005 | 14 | 256 | 1.6 | 12.9 | 0.00 | 0.00 | 0.00 | 62 | 1015.8 |
| 20260510043945 | 14 | 257 | 9.7 | 16.1 | 0.00 | 0.00 | 0.00 | 63 | 1015.9 |
| 20260510042935 | 13 | 257 | 0.0 | 3.2 | 0.00 | 0.00 | 0.00 | 63 | 1015.9 |
| 20260510041938 | 14 | 257 | 0.0 | 0.0 | 0.00 | 0.00 | 0.00 | 63 | 1016.2 |
| 20260510040941 | 14 | 257 | 0.0 | 0.0 | 0.00 | 0.00 | 0.00 | 62 | 1016.0 |
| 20260510035943 | 15 | 256 | 0.0 | 0.0 | 0.00 | 0.00 | 0.00 | 61 | 1016.0 |
| 20260510034931 | 15 | 257 | 0.0 | 0.0 | 0.00 | 0.00 | 0.00 | 59 | 1016.0 |
| 20260510032946 | 17 | 257 | 0.0 | 0.0 | 0.00 | 0.00 | 0.00 | 56 | 1015.9 |
| 20260510031956 | 17 | 256 | 0.0 | 0.0 | 0.00 | 0.00 | 0.00 | 54 | 1015.8 |
| 20260510030936 | 18 | 257 | 0.0 | 0.0 | 0.00 | 0.00 | 0.00 | 54 | 1015.8 |
| 20260510025935 | 19 | 256 | 0.0 | 0.0 | 0.00 | 0.00 | 0.00 | 53 | 1015.8 |
| 20260510023939 | 21 | 257 | 0.0 | 0.0 | 0.00 | 0.00 | 0.00 | 49 | 1015.8 |
| 20260510022939 | 22 | 256 | 0.0 | 0.0 | 0.00 | 0.00 | 0.00 | 49 | 1015.8 |
| 20260510021933 | 22 | 257 | 0.0 | 0.0 | 0.00 | 0.00 | 0.00 | 46 | 1015.9 |
| 20260510020936 | 23 | 257 | 0.0 | 0.0 | 0.00 | 0.00 | 0.00 | 44 | 1015.9 |
| 20260510015943 | 23 | 257 | 0.0 | 0.0 | 0.00 | 0.00 | 0.00 | 45 | 1016.0 |
| 20260510014946 | 24 | 257 | 0.0 | 0.0 | 0.00 | 0.00 | 0.00 | 43 | 1016.0 |
| 20260510014008 | 25 | 256 | 0.0 | 0.0 | 0.00 | 0.00 | 0.00 | 40 | 1016.1 |
| 20260510012932 | 25 | 257 | 0.0 | 0.0 | 0.00 | 0.00 | 0.00 | 39 | 1016.1 |
| 20260510011938 | 25 | 256 | 0.0 | 0.0 | 0.00 | 0.00 | 0.00 | 37 | 1016.2 |
| 20260510010939 | 25 | 256 | 0.0 | 0.0 | 0.00 | 0.00 | 0.00 | 35 | 1016.3 |
| 20260510010004 | 26 | 256 | 0.0 | 0.0 | 0.00 | 0.00 | 0.00 | 34 | 1016.5 |
| 20260510004950 | 26 | 257 | 0.0 | 0.0 | 0.00 | 0.00 | 0.00 | 32 | 1016.5 |
| 20260510003952 | 25 | 257 | 0.0 | 0.0 | 0.00 | 0.00 | 0.00 | 34 | 1016.6 |
| 20260510002938 | 25 | 257 | 0.0 | 0.0 | 0.00 | 0.00 | 0.00 | 29 | 1016.7 |
| 20260510001940 | 25 | 256 | 0.0 | 0.0 | 0.00 | 0.00 | 0.00 | 30 | 1016.7 |
| 20260510000943 | 25 | 256 | 0.0 | 0.0 | 0.00 | 0.00 | 0.00 | 32 | 1016.7 |
| 20260509235948 | 25 | 257 | 0.0 | 0.0 | 0.00 | 0.00 | 0.00 | 32 | 1016.8 |
| 20260509234947 | 25 | 256 | 0.0 | 0.0 | 0.00 | 0.00 | 0.00 | 36 | 1016.9 |
| 20260509233945 | 25 | 257 | 0.0 | 0.0 | 0.00 | 0.00 | 0.00 | 39 | 1017.0 |
| 20260509232934 | 24 | 257 | 0.0 | 11.3 | 0.00 | 0.00 | 0.00 | 36 | 1017.1 |
| 20260509231934 | 24 | 256 | 1.6 | 11.3 | 0.00 | 0.00 | 0.00 | 36 | 1017.3 |
| 20260509230939 | 25 | 257 | 0.0 | 11.3 | 0.00 | 0.00 | 0.00 | 43 | 1017.2 |
| 20260509225946 | 24 | 256 | 0.0 | 11.3 | 0.00 | 0.00 | 0.00 | 43 | 1017.3 |
| 20260509224928 | 24 | 256 | 1.6 | 11.3 | 0.00 | 0.00 | 0.00 | 43 | 1017.3 |
| 20260509224011 | 24 | 257 | 0.0 | 12.9 | 0.00 | 0.00 | 0.00 | 41 | 1017.5 |
| 20260509222932 | 24 | 257 | 1.6 | 9.7 | 0.00 | 0.00 | 0.00 | 44 | 1017.5 |
| 20260509222001 | 23 | 257 | 3.2 | 11.3 | 0.00 | 0.00 | 0.00 | 41 | 1017.6 |
| 20260509220942 | 24 | 257 | 1.6 | 8.0 | 0.00 | 0.00 | 0.00 | 45 | 1017.5 |
| 20260509215945 | 24 | 256 | 0.0 | 12.9 | 0.00 | 0.00 | 0.00 | 41 | 1017.6 |
| 20260509214948 | 24 | 257 | 0.0 | 4.8 | 0.00 | 0.00 | 0.00 | 40 | 1017.8 |
| 20260509213935 | 23 | 257 | 1.6 | 9.7 | 0.00 | 0.00 | 0.00 | 45 | 1017.9 |
| 20260509212941 | 23 | 256 | 1.6 | 8.0 | 0.00 | 0.00 | 0.00 | 40 | 1018.0 |
| 20260509211943 | 23 | 257 | 8.0 | 12.9 | 0.00 | 0.00 | 0.00 | 42 | 1018.1 |
| 20260509210928 | 23 | 253 | 0.0 | 11.3 | 0.00 | 0.00 | 0.00 | 38 | 1018.3 |
| 20260509205937 | 23 | 253 | 6.4 | 14.5 | 0.00 | 0.00 | 0.00 | 41 | 1018.3 |
| 20260509204941 | 22 | 252 | 1.6 | 11.3 | 0.00 | 0.00 | 0.00 | 39 | 1018.4 |
| 20260509203941 | 22 | 252 | 0.0 | 17.7 | 0.00 | 0.00 | 0.00 | 39 | 1018.5 |
| 20260509202939 | 22 | 252 | 4.8 | 12.9 | 0.00 | 0.00 | 0.00 | 41 | 1018.5 |
| 20260509201942 | 22 | 252 | 1.6 | 9.7 | 0.00 | 0.00 | 0.00 | 43 | 1018.5 |
| 20260509200939 | 22 | 252 | 3.2 | 12.9 | 0.00 | 0.00 | 0.00 | 40 | 1018.7 |
| 20260509195936 | 22 | 252 | 6.4 | 14.5 | 0.00 | 0.00 | 0.00 | 41 | 1018.8 |
| 20260509194939 | 21 | 252 | 1.6 | 12.9 | 0.00 | 0.00 | 0.00 | 43 | 1018.9 |
| 20260509193941 | 21 | 252 | 0.0 | 9.7 | 0.00 | 0.00 | 0.00 | 44 | 1018.9 |
| 20260509192931 | 21 | 252 | 6.4 | 12.9 | 0.00 | 0.00 | 0.00 | 46 | 1019.2 |
| 20260509191934 | 20 | 252 | 8.0 | 12.9 | 0.00 | 0.00 | 0.00 | 46 | 1019.4 |
| 20260509190936 | 20 | 252 | 6.4 | 16.1 | 0.00 | 0.00 | 0.00 | 44 | 1019.5 |
| 20260509184955 | 20 | 251 | 0.0 | 11.3 | 0.00 | 0.00 | 0.00 | 51 | 1019.7 |
| 20260509183941 | 20 | 250 | 8.0 | 14.5 | 0.00 | 0.00 | 0.00 | 47 | 1019.8 |
| 20260509182943 | 20 | 251 | 6.4 | 14.5 | 0.00 | 0.00 | 0.00 | 48 | 1020.0 |
| 20260509181945 | 19 | 250 | 4.8 | 16.1 | 0.00 | 0.00 | 0.00 | 47 | 1020.0 |
| 20260509180947 | 19 | 250 | 4.8 | 17.7 | 0.00 | 0.00 | 0.00 | 47 | 1020.2 |
| 20260509175932 | 19 | 281 | 4.8 | 12.9 | 0.00 | 0.00 | 0.00 | 52 | 1020.2 |
| 20260509174945 | 18 | 282 | 8.0 | 16.1 | 0.00 | 0.00 | 0.00 | 52 | 1020.1 |
| 20260509173959 | 18 | 281 | 4.8 | 17.7 | 0.00 | 0.00 | 0.00 | 54 | 1020.2 |
| 20260509172957 | 18 | 281 | 8.0 | 17.7 | 0.00 | 0.00 | 0.00 | 54 | 1020.1 |
| 20260509171953 | 18 | 277 | 9.7 | 16.1 | 0.00 | 0.00 | 0.00 | 52 | 1020.2 |
| 20260509170934 | 17 | 276 | 14.5 | 19.3 | 0.00 | 0.00 | 0.00 | 51 | 1020.2 |
| 20260509165935 | 17 | 297 | 4.8 | 16.1 | 0.00 | 0.00 | 0.00 | 56 | 1020.3 |
| 20260509164935 | 17 | 302 | 6.4 | 14.5 | 0.00 | 0.00 | 0.00 | 58 | 1020.4 |
| 20260509163937 | 17 | 302 | 6.4 | 17.7 | 0.00 | 0.00 | 0.00 | 59 | 1020.4 |
| 20260509162940 | 16 | 306 | 9.7 | 17.7 | 0.00 | 0.00 | 0.00 | 59 | 1020.5 |
| 20260509161947 | 16 | 298 | 8.0 | 14.5 | 0.00 | 0.00 | 0.00 | 59 | 1020.6 |
| 20260509155943 | 16 | 281 | 6.4 | 12.9 | 0.00 | 0.00 | 0.00 | 59 | 1020.6 |
| 20260509154946 | 15 | 281 | 4.8 | 12.9 | 0.00 | 0.00 | 0.00 | 59 | 1020.5 |
| 20260509153935 | 15 | 280 | 4.8 | 19.3 | 0.00 | 0.00 | 0.00 | 60 | 1020.4 |
| 20260509152942 | 14 | 280 | 0.0 | 0.0 | 0.00 | 0.00 | 0.00 | 64 | 1020.4 |
| 20260509151927 | 13 | 280 | 0.0 | 0.0 | 0.00 | 0.00 | 0.00 | 66 | 1020.5 |
| 20260509150933 | 12 | 280 | 0.0 | 0.0 | 0.00 | 0.00 | 0.00 | 68 | 1020.6 |
| 20260509145940 | 12 | 280 | 0.0 | 0.0 | 0.00 | 0.00 | 0.00 | 69 | 1020.5 |
| 20260509144940 | 12 | 280 | 0.0 | 0.0 | 0.00 | 0.00 | 0.00 | 69 | 1020.4 |
| 20260509144019 | 11 | 280 | 0.0 | 0.0 | 0.00 | 0.00 | 0.00 | 71 | 1020.4 |
| 20260509143004 | 11 | 280 | 0.0 | 0.0 | 0.00 | 0.00 | 0.00 | 72 | 1020.4 |
| 20260509141942 | 11 | 280 | 0.0 | 6.4 | 0.00 | 0.00 | 0.00 | 73 | 1020.4 |
| 20260509140942 | 10 | 280 | 0.0 | 4.8 | 0.00 | 0.00 | 0.00 | 74 | 1020.5 |
| 20260509135945 | 10 | 280 | 0.0 | 0.0 | 0.00 | 0.00 | 0.00 | 75 | 1020.6 |
| 20260509134958 | 10 | 280 | 0.0 | 12.9 | 0.00 | 0.00 | 0.00 | 75 | 1020.6 |
| 20260509133939 | 9 | 289 | 4.8 | 12.9 | 0.00 | 0.00 | 0.00 | 76 | 1020.6 |
| 20260509133004 | 9 | 338 | 1.6 | 6.4 | 0.00 | 0.00 | 0.00 | 77 | 1020.6 |
| 20260509131929 | 8 | 360 | 0.0 | 4.8 | 0.00 | 0.00 | 0.00 | 79 | 1020.6 |
| 20260509130934 | 8 | 5 | 0.0 | 0.0 | 0.00 | 0.00 | 0.00 | 79 | 1020.6 |
| 20260509125937 | 8 | 44 | 0.0 | 0.0 | 0.00 | 0.00 | 0.00 | 79 | 1020.6 |
| 20260509125000 | 8 | 44 | 0.0 | 0.0 | 0.00 | 0.00 | 0.00 | 79 | 1020.5 |
| 20260509123942 | 8 | 44 | 0.0 | 0.0 | 0.00 | 0.00 | 0.00 | 80 | 1020.5 |